DateTimeUTC,F1_A11,F1_S11,BsB_S11,BsG_S11,BsR_S11,BbsB_S11,BbsG_S11,BbsR_S11,BaB_A11,BaG_A11,BaR_A11,Tu_S11,T_S11,Uu_S11,U_S11,P_S11,T1_A11
2021-10-22T03:00:00Z,00000200,21000000,,,,,,,-000.39,-000.09,0000.31,16.2,23.5,,00.0,0650.5,30.9
2021-10-22T03:01:00Z,00000200,21000000,,,,,,,-000.50,0000.21,-000.26,16.2,23.5,,00.0,0650.5,30.9
2021-10-22T03:02:00Z,00000200,21000000,,,,,,,0000.49,0000.06,0000.24,16.2,23.5,,00.0,0650.5,30.9
2021-10-22T03:03:00Z,00000200,61000000,,,,,,,0000.44,0000.35,0000.14,16.2,23.5,,00.0,0650.5,30.9
2021-10-22T03:04:00Z,00000200,41000000,0000.24,0001.36,0000.42,0000.71,0000.40,0000.21,0000.58,0000.43,0000.29,16.4,23.4,,00.0,0651.4,30.9
2021-10-22T03:05:00Z,00000200,01000000,0001.28,0001.23,0000.34,0000.56,-000.07,0000.34,0000.81,0000.45,0000.43,16.5,23.3,,00.0,0651.4,30.9
2021-10-22T03:06:00Z,00000200,01000000,0001.61,0000.98,0000.67,-000.01,0000.37,0000.51,0000.39,0000.69,0000.62,16.6,23.3,,00.0,0651.4,30.9
2021-10-22T03:07:00Z,00000200,01000000,0001.78,0001.22,0000.42,0000.35,0000.45,0000.14,0000.63,0000.36,0000.23,16.6,23.3,,00.0,0651.4,30.9
2021-10-22T03:08:00Z,00000200,01000000,0001.77,0000.76,0000.49,0000.15,0000.35,0000.24,0000.33,0000.66,0000.14,16.7,23.3,,00.0,0651.4,30.9
2021-10-22T03:09:00Z,00000200,01000000,0001.42,0000.68,0000.64,-000.23,0000.32,0000.02,0000.61,0000.12,0000.71,16.7,23.3,,00.0,0651.4,30.9
2021-10-22T03:10:00Z,00000200,01000000,0000.76,0000.91,0000.28,0000.54,0000.22,-000.44,0000.46,0000.39,0000.33,16.7,23.3,,00.0,0651.4,30.9
2021-10-22T03:11:00Z,00000200,01000000,0001.78,0001.11,0000.43,0000.61,0000.41,0000.32,0000.36,0000.61,0000.45,16.7,23.3,,00.0,0651.4,30.9
2021-10-22T03:12:00Z,00000200,01000000,0000.68,0001.28,0000.62,0000.19,0000.36,0000.42,0000.67,0000.29,-000.11,16.8,23.4,,00.0,0651.4,30.9
2021-10-22T03:13:00Z,00000200,01000000,0001.21,0001.09,0000.61,0000.82,0000.59,-000.01,-000.01,0000.25,0000.40,16.8,23.4,,00.0,0651.4,30.9
2021-10-22T03:14:00Z,00000200,01000000,0001.47,0001.34,0000.51,0000.22,0000.20,-000.02,0000.60,0000.92,0000.48,16.9,23.4,,00.0,0651.4,30.9
2021-10-22T03:15:00Z,00000200,01000000,0001.74,0001.42,0000.66,0001.04,0000.44,0000.20,0000.59,0000.42,-000.01,16.9,23.4,,00.0,0651.4,30.9
2021-10-22T03:16:00Z,00000200,01000000,0001.23,0000.96,0000.58,0000.00,0000.34,0000.21,-000.21,-000.35,0000.08,16.9,23.4,,00.0,0651.4,30.9
2021-10-22T03:17:00Z,00000200,01000000,0001.11,0000.77,0000.75,0000.43,0000.33,0000.47,0000.29,0000.41,0000.24,16.9,23.4,,00.0,0651.5,30.9
2021-10-22T03:18:00Z,00000200,01000000,0001.33,0001.15,0000.63,0000.38,0000.35,0000.11,0000.52,0000.54,0000.44,17.0,23.5,,00.0,0651.5,30.9
2021-10-22T03:19:00Z,00000200,01000000,0000.88,0000.92,0000.66,0000.35,0000.23,0000.42,0000.23,0000.16,0000.52,17.0,23.5,,00.0,0651.5,30.9
2021-10-22T03:20:00Z,00000200,01000000,0001.35,0000.91,0000.77,0000.73,0000.36,0000.37,0000.84,0000.97,0000.11,17.1,23.5,,00.0,0651.5,30.9
2021-10-22T03:21:00Z,00000200,01000000,0001.31,0001.24,0000.57,0000.32,0000.11,0000.25,0000.23,-000.24,0000.24,17.1,23.5,,00.0,0651.5,30.9
2021-10-22T03:22:00Z,00000200,01000000,0001.56,0001.38,0000.55,0000.33,0000.11,0000.39,0000.27,0000.44,0000.14,17.1,23.5,,00.0,0651.5,30.9
2021-10-22T03:23:00Z,00000200,01000000,0001.24,0001.17,0000.85,0000.39,0000.13,0000.44,0000.45,0000.61,0000.39,17.2,23.6,,00.0,0651.5,31.0
2021-10-22T03:24:00Z,00000200,01000000,0001.15,0001.09,0000.72,0000.42,0000.45,-000.09,0000.57,0000.23,0000.37,17.2,23.6,,00.0,0651.5,31.0
2021-10-22T03:25:00Z,00000200,01000000,0001.49,0000.58,0000.99,0001.03,0000.43,-000.17,0000.28,0000.31,0000.13,17.3,23.6,,00.0,0651.5,31.0
2021-10-22T03:26:00Z,00000200,01000000,0001.28,0001.20,0000.73,0000.29,0000.55,-000.04,0000.43,0000.35,0000.58,17.3,23.6,,00.0,0651.5,31.0
2021-10-22T03:27:00Z,00000200,01000000,0001.17,0001.59,0000.68,0000.57,0000.51,-000.11,0000.45,0000.66,0000.08,17.2,23.6,,00.0,0651.5,30.9
2021-10-22T03:28:00Z,00000200,01000000,0001.15,0000.91,0000.12,0000.42,0000.57,0000.24,0000.23,0000.09,0000.13,17.1,23.6,,00.0,0651.5,30.9
2021-10-22T03:29:00Z,00000200,01000000,0000.95,0001.19,0000.67,0000.48,0000.24,0000.29,0000.61,0000.16,0000.17,17.1,23.5,,00.0,0651.5,30.9
2021-10-22T03:30:00Z,00000200,01000000,0001.04,0000.85,0000.56,0000.75,0000.25,0000.36,0000.54,0000.77,0000.14,17.0,23.5,,00.0,0651.5,30.9
2021-10-22T03:31:00Z,00000200,01000000,0001.21,0001.04,0000.60,0000.23,0000.20,-000.04,0000.49,0000.45,0000.71,17.0,23.5,,00.0,0651.5,30.9
2021-10-22T03:32:00Z,00000200,01000000,0001.53,0000.94,0000.76,0000.95,0000.30,-000.04,0000.11,-000.05,0000.17,17.0,23.5,,00.0,0651.5,30.9
2021-10-22T03:33:00Z,00000200,01000000,0000.99,0001.06,0000.62,0000.47,0000.38,0000.28,0000.71,0000.38,0000.15,17.0,23.5,,00.0,0651.5,30.9
2021-10-22T03:34:00Z,00000200,01000000,0001.79,0001.30,0000.43,-000.01,0000.32,0000.02,0000.42,0000.50,0000.59,17.1,23.5,,00.0,0651.5,30.9
2021-10-22T03:35:00Z,00000200,01000000,0001.18,0001.74,0000.84,0001.16,0000.35,-000.05,0000.31,0000.18,0000.15,17.1,23.5,,00.0,0651.5,30.9
2021-10-22T03:36:00Z,00000200,01000000,0002.23,0001.00,0000.69,0000.10,0000.21,0000.25,0000.57,0000.94,0000.39,17.1,23.6,,00.0,0651.5,30.9
2021-10-22T03:37:00Z,00000200,01000000,0001.45,0000.98,0000.56,0000.66,0000.21,0000.03,0000.15,-000.21,0000.25,17.2,23.6,,00.0,0651.5,30.9
2021-10-22T03:38:00Z,00000200,01000000,0001.65,0001.21,0000.61,0000.63,0000.35,0000.12,0000.66,0001.06,0000.43,17.2,23.6,,00.0,0651.5,30.9
2021-10-22T03:39:00Z,00000200,01000000,0001.46,0001.53,0000.43,0000.69,0000.20,0000.15,0000.51,0000.34,0000.34,17.2,23.6,,00.0,0651.5,31.0
2021-10-22T03:40:00Z,00000200,01000000,0002.31,0001.27,0000.76,0000.26,0000.19,0000.22,0000.38,0000.40,0000.36,17.2,23.6,,00.0,0651.5,31.0
2021-10-22T03:41:00Z,00000200,01000000,0001.03,0001.16,0000.87,-000.04,0000.07,0000.39,0000.64,0000.38,-000.24,17.3,23.7,,00.0,0651.5,30.9
2021-10-22T03:42:00Z,00000200,01000000,0001.38,0001.34,0000.47,0000.92,0000.15,0000.20,0000.23,0000.29,0000.52,17.2,23.7,,00.0,0651.5,30.9
2021-10-22T03:43:00Z,00000200,01000000,0001.61,0001.23,0000.71,0000.21,0000.57,0000.28,0000.67,0000.53,0000.50,17.2,23.7,,00.0,0651.4,31.0
2021-10-22T03:44:00Z,00000200,01000000,0001.83,0001.46,0000.34,0000.41,0000.20,0000.62,0000.38,0000.03,0000.16,17.1,23.6,,00.0,0651.4,30.9
2021-10-22T03:45:00Z,00000200,01000000,0000.97,0000.99,0000.87,0000.18,0000.26,0000.36,0000.69,0001.01,0000.27,17.1,23.6,,00.0,0651.4,30.9
2021-10-22T03:46:00Z,00000200,01000000,0001.70,0001.27,0000.63,-000.08,0000.11,0000.19,0000.47,0000.25,0000.58,17.0,23.6,,00.0,0651.4,30.9
2021-10-22T03:47:00Z,00000200,01000000,0000.85,0000.94,0000.73,0000.21,0000.40,0000.25,0000.28,0000.46,0000.32,17.0,23.6,,00.0,0651.4,30.9
2021-10-22T03:48:00Z,00000200,01000000,0001.37,0001.35,0000.69,0000.14,0000.28,0000.23,0000.42,0000.34,0000.37,17.1,23.6,,00.0,0651.4,30.9
2021-10-22T03:49:00Z,00000200,01000000,0001.63,0000.87,0000.68,0000.42,0000.30,0000.15,0000.49,0000.23,0000.32,17.1,23.6,,00.0,0651.4,30.9
2021-10-22T03:50:00Z,00000200,01000000,0001.14,0001.08,0000.62,0000.42,0000.79,-000.15,0000.63,0000.57,0000.29,17.1,23.6,,00.0,0651.4,30.9
2021-10-22T03:51:00Z,00000200,01000000,0001.74,0001.09,0000.70,0000.11,0000.33,0000.01,0000.24,0000.30,0000.14,17.1,23.6,,00.0,0651.4,30.9
2021-10-22T03:52:00Z,00000200,01000000,0001.44,0000.97,0000.52,0000.52,0000.44,0000.23,0000.50,0000.73,0000.51,17.2,23.6,,00.0,0651.4,30.9
2021-10-22T03:53:00Z,00000200,01000000,0001.45,0000.80,0000.21,0000.43,0000.14,0000.10,0000.49,0000.33,0000.24,17.2,23.7,,00.0,0651.4,30.9
2021-10-22T03:54:00Z,00000200,01000000,0001.94,0001.09,0000.69,-000.06,0000.27,0000.06,0000.59,0000.46,0000.41,17.3,23.7,,00.0,0651.4,31.0
2021-10-22T03:55:00Z,00000200,01000000,0001.45,0000.79,0000.36,0000.47,0000.19,0000.24,0000.16,0000.28,-000.17,17.3,23.7,,00.0,0651.4,31.0
2021-10-22T03:56:00Z,00000200,01000000,0001.41,0001.16,0000.39,0001.03,0000.39,-000.03,0000.59,0000.42,0000.61,17.3,23.7,,00.0,0651.4,31.0
2021-10-22T03:57:00Z,00000200,41000000,,,,,,,0001.02,0000.77,0000.80,17.3,23.7,,00.0,0651.4,30.9
2021-10-22T03:58:00Z,00000200,61000000,,,,,,,-000.48,-000.20,-000.31,16.8,23.8,,00.0,0650.4,30.9
2021-10-22T03:59:00Z,00000200,21000000,,,,,,,-000.50,-000.51,-000.52,16.8,23.9,,00.0,0650.4,30.9
